JST518 YMAV-YMLT

Flight info

Callsign JST518
Flight time 0h 43m
Altitude 31000
Route LPD DCT SUNTI H169 IRSOM
Aircraft A321/M-SDE3FGHIRWY/LB1

Departure

Time 2026-04-15 22:38
Airport Melbourne Avalon International Airport (YMAV)

Arrival

Time 2026-04-15 23:22
Airport Launceston Airport (YMLT)
Time Latitude Longitude Altitude Speed Heading
2026-04-15 22:21 -38.02798 144.47381 31 ft 0 kts 329°
2026-04-15 22:25 -38.02796 144.47376 32 ft 1 kts 303°
2026-04-15 22:25 -38.02797 144.47362 31 ft 3 kts 272°
2026-04-15 22:26 -38.02796 144.47338 32 ft 4 kts 272°
2026-04-15 22:26 -38.02794 144.47299 32 ft 5 kts 275°
2026-04-15 22:26 -38.02790 144.47244 32 ft 7 kts 275°
2026-04-15 22:26 -38.02782 144.47189 31 ft 8 kts 288°
2026-04-15 22:27 -38.02774 144.47169 31 ft 0 kts 296°
2026-04-15 22:34 -38.02769 144.47157 32 ft 3 kts 298°
2026-04-15 22:34 -38.02762 144.47140 32 ft 0 kts 298°
2026-04-15 22:35 -38.02760 144.47135 32 ft 2 kts 298°
2026-04-15 22:35 -38.02751 144.47112 30 ft 4 kts 298°
2026-04-15 22:35 -38.02740 144.47068 31 ft 7 kts 279°
2026-04-15 22:35 -38.02733 144.46997 30 ft 9 kts 277°
2026-04-15 22:36 -38.02732 144.46948 30 ft 3 kts 243°
2026-04-15 22:36 -38.02764 144.46935 30 ft 6 kts 188°
2026-04-15 22:36 -38.02778 144.46932 30 ft 0 kts 187°
2026-04-15 22:37 -38.02782 144.46932 30 ft 9 kts 187°
2026-04-15 22:37 -38.03132 144.46873 33 ft 89 kts 187°
2026-04-15 22:37 -38.03940 144.46737 34 ft 148 kts 188°
2026-04-15 22:38 -38.05070 144.46549 404 ft 167 kts 186°
2026-04-15 22:38 -38.06230 144.46378 1107 ft 171 kts 192°
2026-04-15 22:38 -38.07477 144.46395 1716 ft 191 kts 176°
2026-04-15 22:38 -38.08801 144.47054 2105 ft 222 kts 158°
2026-04-15 22:39 -38.10235 144.48055 2479 ft 247 kts 156°
2026-04-15 22:39 -38.11819 144.49178 2923 ft 274 kts 156°
2026-04-15 22:39 -38.13533 144.50399 3640 ft 287 kts 156°
2026-04-15 22:39 -38.15280 144.51660 4468 ft 290 kts 156°
2026-04-15 22:40 -38.17044 144.52941 5298 ft 293 kts 156°
2026-04-15 22:40 -38.18829 144.54237 6110 ft 297 kts 156°
2026-04-15 22:40 -38.20635 144.55549 6898 ft 301 kts 156°
2026-04-15 22:41 -38.24311 144.58207 8438 ft 307 kts 157°
2026-04-15 22:41 -38.26185 144.59552 9210 ft 311 kts 157°
2026-04-15 22:41 -38.28079 144.60910 9975 ft 315 kts 157°
2026-04-15 22:41 -38.30029 144.62307 10374 ft 332 kts 157°
2026-04-15 22:42 -38.32116 144.63794 10556 ft 355 kts 157°
2026-04-15 22:42 -38.34333 144.65378 10844 ft 372 kts 156°
2026-04-15 22:42 -38.36609 144.67024 11440 ft 379 kts 156°
2026-04-15 22:42 -38.38913 144.68700 12082 ft 384 kts 156°
2026-04-15 22:43 -38.41246 144.70396 12730 ft 388 kts 156°
2026-04-15 22:43 -38.43608 144.72111 13366 ft 393 kts 156°
2026-04-15 22:43 -38.46000 144.73845 14001 ft 398 kts 156°
2026-04-15 22:43 -38.48411 144.75595 14623 ft 402 kts 156°
2026-04-15 22:44 -38.50862 144.77375 15181 ft 407 kts 156°
2026-04-15 22:44 -38.53329 144.79167 15777 ft 411 kts 156°
2026-04-15 22:44 -38.55825 144.80980 16397 ft 414 kts 156°
2026-04-15 22:44 -38.58344 144.82806 16978 ft 418 kts 156°
2026-04-15 22:45 -38.60887 144.84653 17582 ft 422 kts 156°
2026-04-15 22:45 -38.63447 144.86524 18173 ft 426 kts 156°
2026-04-15 22:45 -38.66030 144.88414 18704 ft 429 kts 156°
2026-04-15 22:45 -38.68632 144.90314 19235 ft 432 kts 156°
2026-04-15 22:46 -38.71254 144.92227 19771 ft 435 kts 156°
2026-04-15 22:46 -38.73892 144.94154 20342 ft 438 kts 156°
2026-04-15 22:46 -38.76514 144.96071 20859 ft 441 kts 156°
2026-04-15 22:46 -38.79191 144.98028 21382 ft 444 kts 156°
2026-04-15 22:47 -38.81879 144.99998 21896 ft 447 kts 156°
2026-04-15 22:47 -38.84589 145.01990 22399 ft 451 kts 155°
2026-04-15 22:47 -38.87319 145.03996 22876 ft 454 kts 155°
2026-04-15 22:47 -38.90068 145.06014 23347 ft 457 kts 155°
2026-04-15 22:48 -38.92834 145.08045 23778 ft 459 kts 155°
2026-04-15 22:48 -38.95615 145.10092 24169 ft 462 kts 155°
2026-04-15 22:48 -38.98411 145.12153 24558 ft 464 kts 155°
2026-04-15 22:48 -39.01224 145.14223 24935 ft 467 kts 156°
2026-04-15 22:49 -39.04054 145.16307 25300 ft 470 kts 155°
2026-04-15 22:49 -39.06901 145.18407 25668 ft 473 kts 155°
2026-04-15 22:49 -39.09760 145.20525 26038 ft 475 kts 155°
2026-04-15 22:49 -39.12633 145.22656 26404 ft 478 kts 155°
2026-04-15 22:50 -39.15514 145.24797 26766 ft 480 kts 155°
2026-04-15 22:50 -39.18416 145.26952 27124 ft 483 kts 155°
2026-04-15 22:50 -39.21333 145.29120 27474 ft 485 kts 155°
2026-04-15 22:50 -39.24265 145.31299 27822 ft 488 kts 155°
2026-04-15 22:51 -39.27212 145.33489 28166 ft 490 kts 155°
2026-04-15 22:51 -39.30172 145.35693 28496 ft 492 kts 155°
2026-04-15 22:51 -39.33146 145.37909 28812 ft 495 kts 155°
2026-04-15 22:51 -39.36137 145.40133 29149 ft 497 kts 155°
2026-04-15 22:52 -39.39140 145.42366 29472 ft 499 kts 155°
2026-04-15 22:52 -39.42156 145.44620 29806 ft 502 kts 155°
2026-04-15 22:52 -39.45185 145.46892 30125 ft 504 kts 155°
2026-04-15 22:52 -39.48225 145.49175 30431 ft 505 kts 155°
2026-04-15 22:53 -39.51266 145.51456 30820 ft 505 kts 155°
2026-04-15 22:53 -39.54274 145.53706 30970 ft 505 kts 155°
2026-04-15 22:53 -39.57277 145.55962 31005 ft 494 kts 155°
2026-04-15 22:53 -39.60230 145.58191 30997 ft 489 kts 155°
2026-04-15 22:54 -39.66099 145.62617 30994 ft 487 kts 155°
2026-04-15 22:54 -39.71956 145.67024 30988 ft 487 kts 155°
2026-04-15 22:55 -39.77814 145.71450 30982 ft 488 kts 155°
2026-04-15 22:55 -39.83680 145.75902 30984 ft 488 kts 155°
2026-04-15 22:56 -39.89552 145.80348 30988 ft 488 kts 155°
2026-04-15 22:56 -39.95416 145.84812 30978 ft 488 kts 155°
2026-04-15 22:57 -40.01375 145.88949 30998 ft 480 kts 166°
2026-04-15 22:57 -40.07642 145.91855 30979 ft 478 kts 167°
2026-04-15 22:58 -40.13910 145.94748 30954 ft 478 kts 167°
2026-04-15 22:58 -40.20183 145.97667 30951 ft 479 kts 167°
2026-04-15 22:59 -40.26458 146.00595 30966 ft 479 kts 167°
2026-04-15 22:59 -40.32737 146.03535 30953 ft 479 kts 167°
2026-04-15 23:00 -40.38981 146.06451 30947 ft 480 kts 167°
2026-04-15 23:00 -40.45268 146.09397 30946 ft 480 kts 167°
2026-04-15 23:01 -40.51559 146.12353 30956 ft 480 kts 167°
2026-04-15 23:01 -40.57910 146.15331 30740 ft 487 kts 167°
2026-04-15 23:02 -40.61143 146.16843 29496 ft 500 kts 167°
2026-04-15 23:02 -40.64376 146.18362 28930 ft 495 kts 167°
2026-04-15 23:02 -40.67584 146.19889 28458 ft 488 kts 167°
2026-04-15 23:02 -40.70764 146.21405 27879 ft 484 kts 167°
2026-04-15 23:03 -40.73914 146.22904 27310 ft 479 kts 167°
2026-04-15 23:03 -40.77035 146.24383 26759 ft 474 kts 167°
2026-04-15 23:03 -40.80127 146.25846 26217 ft 470 kts 167°
2026-04-15 23:03 -40.83191 146.27298 25671 ft 466 kts 167°
2026-04-15 23:04 -40.86228 146.28734 25156 ft 461 kts 167°
2026-04-15 23:04 -40.89238 146.30159 24646 ft 457 kts 167°
2026-04-15 23:04 -40.92221 146.31575 24159 ft 454 kts 167°
2026-04-15 23:04 -40.95181 146.32984 23661 ft 451 kts 167°
2026-04-15 23:05 -40.98118 146.34387 23134 ft 447 kts 167°
2026-04-15 23:05 -41.01026 146.35777 22673 ft 442 kts 167°
2026-04-15 23:05 -41.03899 146.37153 22213 ft 438 kts 167°
2026-04-15 23:05 -41.06752 146.38522 21764 ft 434 kts 167°
2026-04-15 23:06 -41.09584 146.39880 21307 ft 431 kts 167°
2026-04-15 23:06 -41.12393 146.41223 20865 ft 427 kts 167°
2026-04-15 23:06 -41.15148 146.42698 20388 ft 429 kts 159°
2026-04-15 23:06 -41.17705 146.44784 19902 ft 435 kts 148°
2026-04-15 23:07 -41.19968 146.47473 19385 ft 438 kts 137°
2026-04-15 23:07 -41.22081 146.50386 18841 ft 437 kts 137°
2026-04-15 23:07 -41.24189 146.53292 18315 ft 436 kts 137°
2026-04-15 23:07 -41.26294 146.56192 17719 ft 435 kts 137°
2026-04-15 23:08 -41.28388 146.59079 17187 ft 432 kts 137°
2026-04-15 23:08 -41.30466 146.61945 16639 ft 429 kts 137°
2026-04-15 23:08 -41.32504 146.64757 16107 ft 426 kts 137°
2026-04-15 23:08 -41.34580 146.67624 15557 ft 423 kts 137°
2026-04-15 23:09 -41.36610 146.70435 15017 ft 421 kts 137°
2026-04-15 23:09 -41.38629 146.73240 14476 ft 418 kts 137°
2026-04-15 23:09 -41.40609 146.75993 13948 ft 416 kts 137°
2026-04-15 23:09 -41.42605 146.78770 13378 ft 414 kts 138°
2026-04-15 23:10 -41.44587 146.81520 12836 ft 409 kts 137°
2026-04-15 23:10 -41.46546 146.84237 12304 ft 404 kts 137°
2026-04-15 23:10 -41.48478 146.86921 11777 ft 399 kts 137°
2026-04-15 23:10 -41.50388 146.89577 11259 ft 395 kts 137°
2026-04-15 23:11 -41.52285 146.92218 10742 ft 392 kts 138°
2026-04-15 23:11 -41.54160 146.94836 10295 ft 387 kts 137°
2026-04-15 23:11 -41.55984 146.97391 10174 ft 372 kts 138°
2026-04-15 23:11 -41.57737 146.99853 10042 ft 359 kts 138°
2026-04-15 23:12 -41.59430 147.02229 9916 ft 346 kts 138°
2026-04-15 23:12 -41.61047 147.04499 9446 ft 331 kts 138°
2026-04-15 23:12 -41.62615 147.06693 8811 ft 324 kts 138°
2026-04-15 23:12 -41.64169 147.08861 8276 ft 321 kts 138°
2026-04-15 23:13 -41.65709 147.11009 7743 ft 319 kts 138°
2026-04-15 23:13 -41.67236 147.13143 7215 ft 317 kts 137°
2026-04-15 23:13 -41.68748 147.15265 6702 ft 313 kts 137°
2026-04-15 23:13 -41.70236 147.17363 6256 ft 305 kts 137°
2026-04-15 23:14 -41.71651 147.19367 5918 ft 290 kts 137°
2026-04-15 23:14 -41.73024 147.21308 5391 ft 284 kts 137°
2026-04-15 23:14 -41.74380 147.23210 4838 ft 280 kts 137°
2026-04-15 23:14 -41.75710 147.25099 4225 ft 277 kts 131°
2026-04-15 23:15 -41.76672 147.27342 3380 ft 281 kts 103°
2026-04-15 23:15 -41.76869 147.29009 3153 ft 265 kts 86°
2026-04-15 23:15 -41.76602 147.31307 3012 ft 242 kts 63°
2026-04-15 23:15 -41.75775 147.33202 2996 ft 232 kts 40°
2026-04-15 23:16 -41.74126 147.34818 3022 ft 211 kts 15°
2026-04-15 23:16 -41.72761 147.35284 3005 ft 196 kts 356°
2026-04-15 23:16 -41.71442 147.35180 3002 ft 187 kts 341°
2026-04-15 23:16 -41.70244 147.34585 3004 ft 183 kts 327°
2026-04-15 23:17 -41.69174 147.33679 3004 ft 182 kts 323°
2026-04-15 23:17 -41.68458 147.33063 3007 ft 182 kts 323°
2026-04-15 23:17 -41.67390 147.32144 3001 ft 183 kts 323°
2026-04-15 23:17 -41.66044 147.30991 3005 ft 159 kts 323°
2026-04-15 23:18 -41.65434 147.30468 2923 ft 149 kts 322°
2026-04-15 23:18 -41.64587 147.29740 2776 ft 141 kts 323°
2026-04-15 23:18 -41.63778 147.29044 2596 ft 138 kts 324°
2026-04-15 23:18 -41.62984 147.28361 2429 ft 138 kts 324°
2026-04-15 23:19 -41.62185 147.27675 2255 ft 136 kts 324°
2026-04-15 23:19 -41.61396 147.26998 2073 ft 135 kts 324°
2026-04-15 23:19 -41.60604 147.26318 1882 ft 136 kts 325°
2026-04-15 23:19 -41.59813 147.25640 1703 ft 135 kts 325°
2026-04-15 23:20 -41.59020 147.24961 1484 ft 136 kts 327°
2026-04-15 23:20 -41.58230 147.24280 1299 ft 138 kts 327°
2026-04-15 23:20 -41.57410 147.23612 1155 ft 140 kts 328°
2026-04-15 23:20 -41.56605 147.22902 959 ft 135 kts 331°
2026-04-15 23:21 -41.55813 147.22237 821 ft 132 kts 331°
2026-04-15 23:21 -41.55033 147.21551 615 ft 133 kts 329°
2026-04-15 23:21 -41.54376 147.20991 594 ft 93 kts 324°
2026-04-15 23:21 -41.53965 147.20642 592 ft 54 kts 327°
2026-04-15 23:22 -41.53824 147.20519 593 ft 0 kts 327°